User: anonymous
Location: Unspecified
(0.0000°N, 0.0000°E)
Time: 21:20:39
(UTC+02:00)
Language:

Centaur AC-64 - Orbit

View from above orbital plane
View from above orbital plane
View from above satellite
View from above satellite

Ground track
Ground track

The orbit data is extracted from the following two-line orbital elements,

1 15874U 85055B   14200.80735451  .00000890  00000-0  54109-3 0  5140
2 15874 023.3034 337.4595 6607753 219.6204 349.6415 03.13051065296728
Epoch (UTC): 19 July 2014 19:22:35
Eccentricity: 0.6607753
inclination: 23.3034°
perigee height: 318 km
apogee height: 26403 km
right ascension of ascending node: 337.4595°
argument of perigee: 219.6204°
revolutions per day: 3.13051065
mean anomaly at epoch: 349.6415°
orbit number at epoch: 29672

The dashed part of the orbit path shows where the satellite is in the earth's shadow,  

DLR